| time (UTC) | temp F | wind direction | speed MPH | gust MPH | rain 1hr in | rain 24hr in | rain mn in | humidity % | barometer mb |
| 20260906121548 | 56 | 55 | 6.0 | 0.0 | 0.00 | 0.00 | 0.00 | 91 | 989.1 |
| 20260906120045 | 56 | 52 | 6.0 | 0.0 | 0.00 | 0.00 | 0.00 | 91 | 989.1 |
| 20260906114550 | 55 | 54 | 5.0 | 0.0 | 0.00 | 0.00 | 0.00 | 88 | 987.5 |
| 20260906113049 | 55 | 48 | 5.0 | 0.0 | 0.00 | 0.00 | 0.00 | 84 | 988.9 |
| 20260906111549 | 55 | 57 | 5.0 | 0.0 | 0.00 | 0.00 | 0.00 | 84 | 988.9 |
| 20260906110051 | 56 | 61 | 5.0 | 0.0 | 0.00 | 0.00 | 0.00 | 84 | 988.9 |
| 20260906104549 | 56 | 58 | 5.0 | 0.0 | 0.00 | 0.00 | 0.00 | 83 | 988.1 |
| 20260906103053 | 56 | 56 | 5.0 | 0.0 | 0.00 | 0.00 | 0.00 | 85 | 989.0 |
| 20260906101545 | 56 | 54 | 5.0 | 0.0 | 0.00 | 0.00 | 0.00 | 85 | 989.0 |
| 20260906100055 | 57 | 54 | 4.0 | 0.0 | 0.00 | 0.00 | 0.00 | 85 | 989.0 |
| 20260906094551 | 57 | 51 | 4.0 | 0.0 | 0.00 | 0.00 | 0.00 | 87 | 988.1 |
| 20260906093052 | 57 | 45 | 5.0 | 0.0 | 0.00 | 0.00 | 0.00 | 85 | 988.8 |
| 20260906091549 | 57 | 52 | 5.0 | 0.0 | 0.00 | 0.00 | 0.00 | 85 | 988.8 |
| 20260906090055 | 58 | 58 | 5.0 | 0.0 | 0.00 | 0.00 | 0.00 | 85 | 988.8 |
| 20260906084552 | 58 | 59 | 5.0 | 0.0 | 0.00 | 0.00 | 0.00 | 86 | 987.7 |
| 20260906083049 | 58 | 56 | 5.0 | 0.0 | 0.00 | 0.00 | 0.00 | 82 | 988.2 |
| 20260906081547 | 59 | 61 | 6.0 | 0.0 | 0.00 | 0.00 | 0.00 | 81 | 988.0 |
| 20260906080110 | 59 | 61 | 6.0 | 0.0 | 0.00 | 0.00 | 0.00 | 81 | 988.0 |
| 20260906074549 | 60 | 60 | 6.0 | 0.0 | 0.00 | 0.00 | 0.00 | 79 | 987.2 |
| 20260906073049 | 60 | 61 | 5.0 | 0.0 | 0.00 | 0.00 | 0.00 | 79 | 987.2 |
| 20260906071551 | 60 | 67 | 5.0 | 0.0 | 0.00 | 0.00 | 0.00 | 79 | 987.2 |
| 20260906070053 | 61 | 71 | 5.0 | 0.0 | 0.00 | 0.00 | 0.00 | 79 | 987.2 |
| 20260906064601 | 61 | 72 | 5.0 | 0.0 | 0.00 | 0.00 | 0.00 | 75 | 986.7 |
| 20260906063055 | 62 | 68 | 6.0 | 0.0 | 0.00 | 0.00 | 0.00 | 70 | 987.1 |
| 20260906061549 | 62 | 64 | 6.0 | 0.0 | 0.00 | 0.00 | 0.00 | 70 | 987.1 |
| 20260906060054 | 62 | 61 | 6.0 | 0.0 | 0.00 | 0.00 | 0.00 | 70 | 987.1 |
| 20260906054550 | 63 | 63 | 7.0 | 0.0 | 0.00 | 0.00 | 0.00 | 69 | 987.3 |
| 20260906053047 | 63 | 60 | 6.0 | 0.0 | 0.00 | 0.00 | 0.00 | 73 | 987.0 |
| 20260906051550 | 64 | 61 | 5.0 | 0.0 | 0.00 | 0.00 | 0.00 | 73 | 987.0 |
| 20260906050053 | 64 | 65 | 5.0 | 0.0 | 0.00 | 0.00 | 0.00 | 73 | 987.0 |
| 20260906044550 | 64 | 69 | 6.0 | 0.0 | 0.00 | 0.00 | 0.00 | 74 | 986.9 |
| 20260906043055 | 65 | 65 | 6.0 | 0.0 | 0.00 | 0.00 | 0.00 | 70 | 986.8 |
| 20260906041549 | 65 | 60 | 6.0 | 0.0 | 0.00 | 0.00 | 0.00 | 70 | 986.8 |
| 20260906040046 | 65 | 60 | 6.0 | 0.0 | 0.00 | 0.00 | 0.00 | 70 | 986.8 |
| 20260906034545 | 66 | 59 | 7.0 | 0.0 | 0.00 | 0.00 | 0.00 | 73 | 986.7 |
| 20260906033051 | 66 | 57 | 6.0 | 0.0 | 0.00 | 0.00 | 0.00 | 75 | 987.1 |
| 20260906031549 | 67 | 56 | 8.0 | 0.0 | 0.00 | 0.00 | 0.00 | 75 | 987.1 |
| 20260906030051 | 67 | 56 | 7.0 | 0.0 | 0.00 | 0.00 | 0.00 | 75 | 987.1 |
| 20260906024549 | 68 | 56 | 7.0 | 0.0 | 0.00 | 0.00 | 0.00 | 71 | 985.8 |
| 20260906023046 | 68 | 56 | 7.0 | 0.0 | 0.00 | 0.00 | 0.00 | 73 | 986.2 |
| 20260906021545 | 68 | 56 | 7.0 | 0.0 | 0.00 | 0.00 | 0.00 | 73 | 986.2 |
| 20260906020044 | 69 | 54 | 7.0 | 0.0 | 0.00 | 0.00 | 0.00 | 73 | 986.2 |
| 20260906015057 | 69 | 49 | 6.0 | 0.0 | 0.00 | 0.00 | 0.00 | 75 | 985.4 |
| 20260906013048 | 70 | 44 | 6.0 | 0.0 | 0.00 | 0.00 | 0.00 | 75 | 985.4 |
| 20260906011548 | 70 | 50 | 8.0 | 0.0 | 0.00 | 0.00 | 0.00 | 75 | 985.4 |
| 20260906010059 | 70 | 43 | 7.0 | 0.0 | 0.00 | 0.00 | 0.00 | 75 | 985.4 |
| 20260906004547 | 70 | 43 | 5.0 | 0.0 | 0.00 | 0.00 | 0.00 | 75 | 985.6 |
| 20260906003055 | 71 | 25 | 4.0 | 0.0 | 0.00 | 0.00 | 0.00 | 75 | 985.6 |
| 20260906001547 | 71 | 36 | 4.0 | 0.0 | 0.00 | 0.00 | 0.00 | 75 | 985.6 |
| 20260906000056 | 72 | 30 | 4.0 | 0.0 | 0.00 | 0.00 | 0.00 | 75 | 985.6 |
| 20260905234552 | 73 | 37 | 4.0 | 0.0 | 0.00 | 0.00 | 0.00 | 65 | 985.4 |
| 20260905233049 | 74 | 39 | 6.0 | 0.0 | 0.00 | 0.00 | 0.00 | 65 | 985.5 |
| 20260905231552 | 75 | 50 | 6.0 | 0.0 | 0.00 | 0.00 | 0.00 | 65 | 985.5 |
| 20260905230052 | 75 | 53 | 7.0 | 0.0 | 0.00 | 0.00 | 0.00 | 65 | 985.5 |
| 20260905224552 | 76 | 51 | 8.0 | 0.0 | 0.00 | 0.00 | 0.00 | 71 | 985.2 |
| 20260905223047 | 76 | 53 | 8.0 | 0.0 | 0.00 | 0.00 | 0.00 | 69 | 985.7 |
| 20260905221547 | 76 | 53 | 9.0 | 0.0 | 0.00 | 0.00 | 0.00 | 69 | 985.7 |
| 20260905220048 | 76 | 52 | 8.0 | 0.0 | 0.00 | 0.00 | 0.00 | 69 | 985.7 |
| 20260905214552 | 76 | 51 | 8.0 | 0.0 | 0.00 | 0.00 | 0.00 | 74 | 985.6 |
| 20260905213053 | 76 | 50 | 9.0 | 0.0 | 0.00 | 0.00 | 0.00 | 73 | 985.9 |
| 20260905211548 | 75 | 53 | 9.0 | 0.0 | 0.00 | 0.00 | 0.00 | 73 | 985.9 |
| 20260905210054 | 75 | 54 | 9.0 | 0.0 | 0.00 | 0.00 | 0.00 | 73 | 985.9 |
| 20260905204552 | 75 | 50 | 8.0 | 0.0 | 0.00 | 0.00 | 0.00 | 79 | 984.9 |
| 20260905203052 | 74 | 47 | 8.0 | 0.0 | 0.00 | 0.00 | 0.00 | 79 | 985.3 |
| 20260905201552 | 75 | 55 | 10.0 | 0.0 | 0.00 | 0.00 | 0.00 | 79 | 985.2 |
| 20260905200059 | 74 | 50 | 10.0 | 0.0 | 0.00 | 0.00 | 0.00 | 79 | 985.2 |
| 20260905194552 | 74 | 47 | 10.0 | 0.0 | 0.00 | 0.00 | 0.00 | 78 | 985.3 |
| 20260905193052 | 73 | 50 | 10.0 | 0.0 | 0.00 | 0.00 | 0.00 | 78 | 985.3 |
| 20260905191548 | 75 | 53 | 8.0 | 0.0 | 0.00 | 0.00 | 0.00 | 78 | 985.4 |
| 20260905184554 | 75 | 55 | 8.0 | 0.0 | 0.00 | 0.00 | 0.00 | 80 | 986.2 |
| 20260905183052 | 76 | 57 | 7.0 | 0.0 | 0.00 | 0.00 | 0.00 | 76 | 986.2 |
| 20260905181551 | 76 | 41 | 6.0 | 0.0 | 0.00 | 0.00 | 0.00 | 76 | 986.2 |
| 20260905180054 | 76 | 55 | 6.0 | 0.0 | 0.00 | 0.00 | 0.00 | 76 | 986.2 |
| 20260905174552 | 76 | 59 | 6.0 | 0.0 | 0.00 | 0.00 | 0.00 | 78 | 986.3 |
| 20260905173053 | 75 | 57 | 7.0 | 0.0 | 0.00 | 0.00 | 0.00 | 81 | 985.6 |
| 20260905171552 | 75 | 58 | 5.0 | 0.0 | 0.00 | 0.00 | 0.00 | 81 | 985.6 |
| 20260905164552 | 74 | 68 | 5.0 | 0.0 | 0.00 | 0.00 | 0.00 | 86 | 986.1 |
| 20260905163053 | 73 | 69 | 5.0 | 0.0 | 0.00 | 0.00 | 0.00 | 81 | 984.9 |
| 20260905161549 | 75 | 76 | 5.0 | 0.0 | 0.00 | 0.00 | 0.00 | 81 | 985.0 |
| 20260905160047 | 74 | 80 | 6.0 | 0.0 | 0.00 | 0.00 | 0.00 | 81 | 985.0 |
| 20260905154547 | 73 | 82 | 6.0 | 0.0 | 0.00 | 0.00 | 0.00 | 84 | 986.2 |
| 20260905153052 | 73 | 70 | 6.0 | 0.0 | 0.00 | 0.00 | 0.00 | 86 | 985.0 |
| 20260905151548 | 72 | 61 | 7.0 | 0.0 | 0.00 | 0.00 | 0.00 | 86 | 985.0 |
| 20260905150047 | 72 | 63 | 8.0 | 0.0 | 0.00 | 0.00 | 0.00 | 86 | 985.0 |
| 20260905144601 | 71 | 60 | 8.0 | 0.0 | 0.00 | 0.00 | 0.00 | 91 | 985.5 |
| 20260905143045 | 71 | 59 | 7.0 | 0.0 | 0.00 | 0.00 | 0.00 | 88 | 985.1 |
| 20260905141552 | 72 | 54 | 8.0 | 0.0 | 0.00 | 0.00 | 0.00 | 88 | 985.1 |
| 20260905140052 | 71 | 57 | 7.0 | 0.0 | 0.00 | 0.00 | 0.00 | 88 | 985.1 |
| 20260905134552 | 71 | 63 | 7.0 | 0.0 | 0.00 | 0.00 | 0.00 | 96 | 984.4 |
| 20260905133052 | 71 | 66 | 7.0 | 0.0 | 0.00 | 0.00 | 0.00 | 96 | 984.4 |
| 20260905131548 | 69 | 50 | 6.0 | 0.0 | 0.00 | 0.00 | 0.00 | 96 | 984.4 |
| 20260905130054 | 69 | 51 | 7.0 | 0.0 | 0.00 | 0.00 | 0.00 | 96 | 984.4 |
| 20260905124552 | 69 | 52 | 7.0 | 0.0 | 0.00 | 0.00 | 0.00 | 96 | 983.9 |
| 20260905123053 | 69 | 48 | 6.0 | 0.0 | 0.00 | 0.00 | 0.00 | 96 | 983.9 |